Location: Deep Valley
(39.7548°N, 80.4695°W)
Time: 11:35:45
(UTC+00:00)

ISS - Pass Details

Date: 29 November 2020
Orbit: 418 x 419 km, 51.6° (Epoch: 18 January)

Event Time Altitude Azimuth Distance (km) Brightness Sun altitude
Rises 22:27:01 0° 292° (WNW) 2,366 0.8 -5.8°
Reaches altitude 10° 22:30:09 10° 324° (NW) 1,502 -0.8 -6.4°
Maximum altitude 22:31:39 12° 350° (N) 1,365 -1.3 -6.6°
Drops below altitude 10° 22:33:09 10° 17° (NNE) 1,502 -1.3 -6.9°
Enters shadow 22:34:34 - 35° (NE) 1,832 -1.0 -7.2°
